sat.trackr.live / text

‹ back to catalog

ONEWEB-0500

NORAD 54118 · 2022-138F

PAYLOAD ACTIVE UNKNOWN

§ Identity

Operator
Country
UK
Launch date
2022-10-22
Launch site
SRILR
Launch vehicle
Mass (kg)
RCS (m²)

Purposes: comms

External: N2YO · Heavens-Above · Gunter

§ Orbital elements

Epoch: 2026-09-20T01:24:39.083616Z

Period
109.11 min
Inclination
87.9111°
Eccentricity
0.0001973
Mean motion
13.19721444 rev/d
Perigee alt
1,184.3 km
Apogee alt
1,187.3 km
Semi-major
7,563.9 km
B*
-1.5821e-4
RAAN
286.0665°
Arg perigee
97.8244°
Mean anomaly
262.3113°
Rev number
18,934

§ Raw data

ONEWEB-05001 54118U 22138F   26263.05878569 -.00000050  00000+0 -15821-3 0  99982 54118  87.9111 286.0665 0001973  97.8244 262.3113 13.19721444189344

JSON: /api/v1/satellites/54118 · /tle

For live sub-satellite position, see the globe view (requires WebGL).

§ Visibility from observer

Set your observer location to see the next 7 days of passes ≥ 10°. The values pass through the URL so the page stays shareable.

No JS? Fill the form by hand. The geolocation button needs JavaScript.